CAPE
903 1367 1986 2273 1814 1453 1311 1367 1460 1471 1636 925 758 1116 1350 1353 1577 1406 1521 1571 1481 1479 1384 1196 1170 908 961 994 950 1075 1128 1426 1407 1352 1219 1236 1345 1063 738 610 583 289 695
1272 1692 2136 2239 1901 1630 1563 1497 1592 1720 1456 1006 797 1073 1206 1352 1566 1331 1398 1299 1524 1405 958 1000 985 1001 1044 913 1203 1063 1054 1402 1512 1354 1248 1352 1243 1060 399 629 326 509 686
1570 1973 2347 2238 1931 1965 1815 1939 1956 1744 1664 1167 985 1179 1192 1334 1368 1423 1469 1814 1379 1522 1135 642 693 798 1041 941 915 993 1212 1231 1487 1310 1035 479 588 884 849 793 613 838 704
1755 2086 1997 2235 2109 2348 2088 2109 2141 1952 1658 1322 1259 1224 1429 1527 1258 1365 1548 1807 1362 1342 1282 986 909 841 780 874 1159 1332 1274 1530 1399 1071 1021 377 391 857 1046 1000 1037 846 741
1556 1544 2210 2057 2442 2609 2240 2019 2178 2100 1914 1668 1607 1534 1652 1694 1523 1475 1315 1092 1417 1333 1228 675 1123 965 1006 1179 1230 1374 1375 1458 1150 1046 696 509 366 979 1187 1045 851 756 638
1563 1581 2306 2191 2594 2830 2639 2352 2092 2338 2458 2186 2000 2115 1759 1636 1853 1365 1314 1539 1352 1446 1396 1333 573 1117 919 1066 1289 1210 1319 1021 831 997 363 586 764 975 1098 886 746 711 649
1498 2815 2586 2331 2618 2724 2907 2645 2940 2771 2880 2751 2575 2541 2226 2114 1809 1717 1284 1633 1619 1223 1355 1284 1176 1147 1074 1024 1229 1161 1121 574 932 346 672 830 1066 963 1007 1079 1124 814 796
1660 2849 2969 2411 2456 2498 2814 2501 2817 3129 3041 2990 2541 2592 2312 1933 1810 1803 1750 1419 1473 1293 1471 1055 961 1088 1010 1154 1005 947 765 524 511 234 732 961 500 1118 1117 1012 923 866 867
1727 2868 3124 2627 2671 2854 2976 2410 2314 2402 2572 2650 2393 2069 1928 1969 1966 2043 1680 1039 1256 1420 1048 1012 1134 1204 1086 998 918 723 380 266 612 206 744 813 583 1237 995 891 970 1026 783
2276 2880 2857 2987 2522 2439 2483 2610 1783 1824 1843 2055 2053 1916 2137 1917 1741 1562 1675 1117 1685 1216 832 904 1321 1256 1218 1056 834 768 129 66 476 242 497 462 465 966 1078 1113 903 878 762
2713 2485 2602 2867 2506 2753 2466 2472 2076 1893 1473 1641 1422 1873 1798 1459 1553 1495 1319 1301 1020 1085 1199 1043 1074 1246 1314 1013 783 531 455 67 410 274 638 229 459 796 1070 1167 1021 826 929
2363 2247 2359 2394 2392 2332 2544 1956 1925 1928 1699 1535 648 589 1404 1684 1550 1305 1418 1238 1252 1211 1307 1375 1311 1240 751 682 509 426 235 234 364 345 829 287 254 892 1094 1199 1045 907 777
2497 2409 2418 2405 2585 2559 2178 2089 1884 1823 1747 1408 946 906 376 582 537 1136 1447 1307 958 1124 1228 969 1378 985 688 887 698 511 550 657 601 365 911 210 234 963 1216 1317 1009 909 937
1700 1667 1830 2046 2292 2367 2230 1703 1485 1593 1840 1667 663 9 14 17 366 992 1445 1619 1329 1359 1427 1027 1224 1109 952 870 948 1205 763 605 757 843 1024 247 185 1172 1145 1155 975 1042 943
1706 1801 2015 2290 2389 2205 2102 1390 1424 1755 1692 1368 969 93 135 595 882 689 991 1576 1654 1311 1354 1016 906 1035 1033 778 1006 1227 1066 911 882 798 868 363 538 906 1386 1145 812 1086 899
1915 1932 1999 2306 2470 2353 2070 1887 1379 1014 1636 1269 1127 529 423 837 993 655 432 954 1294 1625 1244 901 1036 986 872 761 751 1040 760 977 1001 925 664 676 616 500 1357 1171 749 628 860
1996 1926 2212 2673 2541 2450 2349 1974 1519 1039 1372 1176 944 1075 954 977 958 929 419 583 830 836 1235 756 1114 586 976 1012 755 583 678 960 949 1085 859 957 821 787 839 595 539 528 836
1913 1977 2110 2102 2424 2384 1934 1494 968 613 694 516 840 783 935 976 876 769 450 279 690 1268 723 645 1046 1140 887 923 787 800 506 738 729 738 857 882 1003 762 319 504 533 564 130
1963 2126 2210 2010 2041 2107 1787 1240 981 767 723 508 513 650 728 802 947 824 329 234 493 790 1174 633 529 1021 688 604 942 842 812 944 903 730 433 879 1059 758 610 450 299 574 268
2061 2396 2360 2092 1908 1837 1449 1533 1190 966 736 485 303 676 582 616 686 628 607 625 571 398 950 657 383 730 619 734 1001 1123 1260 1019 1023 837 727 738 804 912 299 123 234 287 403
2366 2371 2288 1983 1833 1843 1318 1134 1119 1060 745 502 344 153 731 603 564 643 746 621 746 535 920 902 515 471 1231 1602 740 649 658 788 894 747 603 900 582 743 159 366 327 476 303
2661 2400 2278 1983 2070 1773 1326 1278 1248 1128 968 763 409 240 332 472 561 521 767 642 605 688 619 838 618 579 1200 1066 611 248 200 442 404 391 774 792 427 621 577 771 853 612 602
2739 2676 2518 2559 2091 1939 1536 1297 1111 1026 885 437 328 462 438 374 423 438 581 876 766 730 557 801 607 690 879 821 932 366 156 378 332 262 545 640 597 582 535 593 1079 922 793
2751 2684 2613 2273 2381 1960 1695 994 760 425 192 149 183 444 610 470 398 434 451 627 773 733 490 506 775 363 870 784 516 406 403 489 150 414 333 477 867 351 355 513 587 541 698
2352 2409 2252 2382 2127 1581 1287 1174 203 169 218 297 388 561 555 520 401 380 439 501 781 822 466 426 298 480 878 653 324 261 292 261 187 52 77 251 438 440 412 407 407 350 507
2238 1871 1494 1630 1649 1278 1007 833 291 246 132 330 387 380 390 448 397 383 430 540 611 574 493 535 408 411 799 355 383 313 228 158 151 103 98 139 137 360 298 203 281 254 323
CIN
-5 -57 -61 -25 -50 -60 -51 -31 -24 -21 -23 -47 -61 -40 -22 -19 -2 -3 -1 0 0 0 0 0 0 -1 -6 -14 -14 -10 -7 -1 -2 0 0 0 0 -2 -8 -18 -14 0 0
-4 -50 -48 -25 -36 -48 -43 -33 -22 -16 -29 -48 -47 -37 -32 -14 -1 -1 -1 0 0 0 -5 -4 -2 -4 -2 -12 -3 -2 -3 -1 0 0 0 0 0 0 -24 -2 -6 -6 0
-3 -22 -29 -39 -46 -38 -35 -22 -17 -17 -25 -42 -45 -33 -25 -15 -8 0 0 0 0 0 -3 -11 -7 -4 -2 -5 -7 -2 -1 -2 0 -4 -13 -1 0 -1 0 -3 -15 0 0
-5 -5 -27 -53 -46 -22 -30 -17 -10 -15 -23 -38 -41 -29 -14 -10 -8 0 0 0 0 0 -1 -3 -4 -3 -7 -6 0 0 0 0 -11 -19 -10 -3 -1 -2 -1 -1 0 0 0
-2 -2 -12 -70 -22 -7 -18 -17 -11 -13 -14 -24 -26 -23 -9 -3 -6 0 0 -8 0 0 -3 -14 -1 -2 0 0 0 0 0 -3 -26 -6 -4 -8 -2 -1 0 0 0 -1 -2
-1 -3 -56 -52 -13 0 -6 -10 -11 -8 -8 -13 -15 -6 -11 -8 0 -4 0 0 0 0 0 0 -16 0 -1 0 0 0 0 -15 -47 -2 -15 -5 -1 -5 0 -2 -1 -1 -7
-2 -24 -37 -32 -6 -3 0 -4 -1 -3 -2 -3 -4 0 -2 -1 0 0 -3 0 -1 0 0 -3 -1 0 0 0 0 0 -1 -33 -20 -3 -3 -1 -4 -4 0 0 0 -1 0
-3 -17 -11 -33 -20 -7 -5 -15 -1 0 0 0 -5 0 -1 -3 -1 -1 -1 -2 -1 0 -1 -7 -6 0 0 0 0 0 -10 -35 -25 -2 -11 -3 -32 0 0 0 0 0 0
-2 -14 -1 -12 -5 -1 0 -17 -18 -8 -4 -1 -4 -8 -7 -2 -2 -1 -3 -8 -3 0 -6 -5 -5 0 0 0 0 -11 -24 -46 -29 -3 -4 -9 -35 0 0 0 0 0 0
-2 -13 -5 0 -3 -2 -5 -2 -15 -14 -10 -9 -10 -15 -3 -4 -4 -6 -3 -10 0 -2 -9 -9 -5 0 0 0 0 -5 -42 -52 -24 -2 -8 -27 -49 -2 0 0 0 0 0
-5 -2 -3 -2 -1 -1 -1 -2 -10 -15 -19 -15 -34 -15 -20 -4 -15 -5 -13 -7 -5 -5 -3 -10 -9 -3 0 0 0 -7 -17 -18 -1 -4 -27 -64 -49 -9 0 0 0 0 0
-1 -1 -3 -4 -1 -1 -1 -10 -3 -4 -6 -23 -107 -92 -40 -10 -27 -12 -2 -24 -10 -5 -4 -4 -4 -7 -12 -1 -2 -9 -10 -3 -9 -5 -14 -51 -53 -4 0 0 0 0 0
-2 -10 -1 -15 -1 -1 -3 -1 -2 -3 -2 -15 -64 -76 -106 -72 -82 -30 -1 -7 -20 -7 -1 -15 -1 -1 -3 -4 -1 -1 -2 -2 -5 -13 -16 -59 -45 -1 0 0 -1 -1 0
-1 -1 -1 -1 -2 -2 -5 -1 -8 -25 -6 -3 -89 -195 -233 -196 -60 -22 -1 -1 -15 -2 -5 -4 -3 -4 -2 -13 -1 0 -3 -12 -12 -1 -12 -45 -52 -2 0 0 -1 0 0
-10 -2 -1 -4 -1 -1 -2 -1 -2 -2 -6 -10 -31 -138 -162 -81 -51 -69 -4 -4 -11 -5 -5 -14 -10 -10 -5 -5 -2 0 -1 -2 -10 -9 -5 -37 -25 -6 0 0 -6 0 -2
-20 -18 -17 -16 -6 -3 -1 -7 -1 -1 -1 -1 -5 -39 -100 -36 -30 -31 -34 -14 -27 -16 -15 -12 -13 -10 -16 -10 -7 -5 -5 0 -3 -2 -22 -18 -29 -34 -1 -2 -10 -17 -9
-19 -14 -3 -1 -1 -2 -1 -1 -1 0 -2 -1 -1 -3 -5 -16 -27 -24 -34 -26 -36 -43 -13 -11 -4 -24 -6 -6 -4 -1 -8 -1 0 -1 -12 -2 -13 -19 -7 -13 -10 -14 -3
-17 -18 -9 -2 -2 0 -1 -8 -20 -3 -2 -3 -5 -5 -1 -1 -13 -23 -18 -46 -35 -13 -44 -16 -6 -1 -10 -10 -7 -3 -2 -2 -5 -1 -6 -6 -6 -2 -39 -20 -11 -15 -77
-39 -31 -26 -19 -15 -11 -8 -13 -15 -15 -10 -3 -2 -3 -1 -6 -1 -5 -15 -14 -30 -4 -17 -32 -13 -6 -6 -18 -3 -4 -4 -2 -2 -1 -1 -1 -1 -2 -17 -13 -29 -19 -40
-32 -26 -24 -26 -15 -16 -4 -2 -3 -2 -3 -1 -3 -8 -2 -1 0 -7 -5 -2 -5 -2 -6 -17 -28 -15 -3 -9 -1 -1 0 -1 -2 -5 -5 -2 -1 -7 -27 -202 -15 -20 -26
-19 -25 -22 -32 -10 -2 -10 -8 -6 -3 -2 -9 -11 -3 -2 -1 -2 -1 -1 -3 -5 -4 -7 -10 -23 -10 -1 0 -9 -9 -12 -5 -2 -2 -13 -2 -3 -1 -69 -14 -6 -2 -23
-4 -22 -18 -17 -3 -2 -8 -2 0 -1 -1 -4 -21 -13 -2 -1 -1 -1 0 -5 -2 -3 -3 -4 -10 -12 0 -5 -6 -9 -10 -2 -6 -3 -1 -1 -1 -1 -13 -1 -4 -3 -10
-3 -4 -2 -1 -1 -1 0 -1 -1 -1 0 -9 -13 -6 -1 -1 -2 -2 -1 -1 0 -2 -5 -4 -13 -10 -3 -9 -9 -2 -10 0 -10 -13 -3 -1 -1 -3 -1 -10 0 0 -1
-1 -1 -1 -3 -3 -1 0 -2 -4 -23 -24 -27 -24 -6 -1 0 -1 0 -2 -1 -2 -7 -5 -1 -10 -25 -4 -3 -13 -4 -2 -8 -16 -1 -12 -11 -1 -15 -9 -5 -2 -3 -1
-1 -1 -2 -6 -2 -3 0 0 -45 -33 -14 -8 -4 0 0 0 -1 0 -1 -1 0 0 -3 -29 -45 -11 -5 -9 -15 -4 -1 -1 -1 -2 -15 -6 -11 -14 -12 -9 -2 -2 -1
-1 -2 -5 -6 -9 -1 -1 0 -20 -20 -31 -4 -2 -1 -1 0 0 0 0 -1 -3 -4 -1 -9 -38 -10 -6 -20 -4 -6 -4 -2 -3 -2 -3 -8 -6 -4 -1 -2 -10 -2 -1
Wind_Speed
16 17 19 8 12 13 17 21 19 18 18 17 16 15 15 15 14 14 12 16 13 11 14 10 9 6 9 11 13 11 12 14 19 25 27 27 27 27 28 28 27 26 26
14 13 15 17 7 3 6 12 13 15 13 12 13 14 14 14 13 14 13 16 11 7 9 7 7 7 8 9 7 7 9 20 19 25 26 26 26 26 26 24 24 25 26
11 13 15 15 16 9 5 8 11 14 18 17 12 10 10 12 13 10 14 16 9 10 9 9 8 7 8 7 6 5 5 18 22 25 27 26 25 25 25 25 24 26 26
16 14 16 14 12 9 7 8 11 13 14 13 13 8 7 8 9 8 11 15 13 15 15 4 13 11 10 7 6 8 12 21 25 27 27 20 24 23 23 24 25 26 26
14 15 11 13 11 7 6 7 9 11 12 10 8 7 6 6 7 8 8 17 19 16 17 21 19 12 10 9 6 7 14 24 25 24 24 18 21 22 22 23 24 25 26
16 16 13 11 11 8 6 6 7 8 9 10 8 6 6 9 7 7 9 15 18 17 17 18 15 11 9 8 5 5 12 26 25 19 12 16 17 21 22 23 23 24 24
11 10 10 12 12 10 8 6 7 7 8 8 7 5 6 8 8 8 11 14 15 18 19 17 12 10 11 8 5 4 8 25 24 11 15 12 15 19 21 20 22 22 23
13 7 6 8 11 9 10 10 8 7 5 6 5 6 8 10 13 11 12 15 16 19 19 17 13 12 8 8 4 4 19 28 24 9 10 9 16 17 18 19 20 21 22
12 7 6 6 7 7 9 7 6 6 5 4 6 11 9 12 14 12 14 17 17 21 20 17 14 12 9 9 4 6 4 29 23 6 11 10 13 16 15 16 18 19 20
12 9 7 6 6 6 6 6 6 4 5 5 6 10 10 14 11 14 13 18 20 20 22 18 13 10 10 7 6 10 15 28 25 5 12 9 12 15 14 14 15 17 18
12 11 8 8 5 5 4 3 4 4 3 3 5 6 6 12 10 13 13 14 21 19 22 17 13 8 10 7 4 8 18 28 20 16 5 9 9 12 14 13 13 14 15
12 10 8 6 5 5 3 3 4 3 2 3 3 6 8 6 18 17 16 13 19 21 21 18 17 11 12 5 5 3 22 27 15 14 6 7 8 10 14 13 12 12 12
13 11 8 7 5 4 4 2 1 0 1 1 2 5 7 6 20 18 17 14 19 20 21 15 18 19 15 18 7 6 12 18 10 3 5 6 6 11 12 12 11 10 10
14 12 10 9 8 6 5 4 2 1 1 1 4 4 2 2 12 6 18 17 22 22 22 21 22 16 11 10 15 16 17 10 13 5 8 4 6 8 8 8 8 8 8
15 14 12 11 10 9 7 10 5 1 1 3 3 5 7 6 7 5 21 20 21 23 22 20 20 18 19 17 15 5 8 4 22 5 7 4 4 5 5 7 6 5 6
15 14 13 12 10 10 9 8 10 11 14 8 4 5 5 5 6 4 13 26 21 23 24 23 19 18 18 20 9 15 14 13 3 3 6 4 4 4 3 6 8 7 6
13 13 12 11 10 9 9 9 8 7 7 8 7 5 5 6 7 12 5 26 26 24 24 25 20 18 20 20 16 20 8 11 10 17 13 8 4 2 2 1 5 5 4
12 11 10 11 10 8 8 9 10 9 10 9 8 9 5 6 6 8 14 20 29 26 22 23 25 22 17 23 17 22 9 4 6 3 17 6 5 2 4 4 1 3 4
11 11 10 9 9 8 7 7 8 11 13 17 15 13 11 9 8 8 7 11 25 28 22 21 24 30 19 20 21 20 17 16 15 4 4 11 11 5 1 5 7 4 3
10 9 9 8 7 7 8 8 11 12 13 16 18 13 14 15 12 11 16 18 23 26 25 23 22 29 22 20 19 18 18 17 18 24 23 16 7 7 12 24 5 1 2
8 8 7 6 6 7 9 9 10 11 15 23 23 22 19 17 16 14 14 21 19 28 23 24 25 25 23 21 17 19 16 17 18 19 20 20 9 7 7 33 5 4 2
6 6 6 5 5 7 11 10 12 15 18 23 20 25 22 16 19 17 15 22 22 22 26 27 24 21 23 20 19 17 21 21 19 18 17 14 10 7 3 6 8 9 6
6 6 5 5 5 10 12 10 11 17 16 18 25 24 18 10 20 23 19 20 22 21 29 29 23 19 22 25 28 22 21 20 19 18 15 17 14 7 6 10 10 10 10
8 9 9 9 12 13 14 11 13 15 15 20 26 24 16 9 16 25 23 19 21 23 26 30 25 23 24 23 23 23 21 20 19 20 18 14 13 13 8 7 10 10 6
11 12 15 16 15 16 16 15 16 17 28 12 29 24 19 15 14 20 21 20 21 24 26 25 24 24 24 24 21 20 16 19 17 20 19 16 13 11 10 9 8 10 7
13 15 16 17 19 18 17 15 15 4 17 19 19 19 19 11 15 18 17 20 23 25 24 27 25 26 23 25 25 17 14 16 17 16 17 15 15 8 6 6 6 8 9
Wind_Direction
92 102 109 85 99 98 106 121 112 108 106 96 89 83 77 70 63 57 47 68 44 30 53 31 31 326 259 251 231 241 54 58 76 92 97 96 96 97 103 104 101 76 85
90 97 103 108 94 74 69 88 95 102 96 88 85 86 82 77 64 60 56 74 34 336 8 317 316 285 279 280 296 271 45 88 83 101 100 99 97 102 105 115 79 79 86
83 96 108 109 110 91 51 66 92 104 112 105 85 77 70 71 68 43 70 82 22 266 285 284 285 291 283 313 308 315 7 84 96 109 119 103 100 101 93 84 76 89 88
105 103 114 111 107 91 66 61 88 102 103 96 93 64 45 51 42 26 55 233 248 231 236 5 251 261 269 315 319 33 69 102 118 121 139 87 97 96 90 86 88 93 93
89 103 101 108 107 87 53 42 66 87 93 85 70 49 24 18 18 4 317 228 214 229 219 174 211 258 272 282 15 40 85 118 128 122 132 76 85 91 89 89 93 100 102
101 104 101 100 110 97 71 57 53 66 79 84 70 23 331 292 332 357 327 261 230 231 225 215 243 264 280 284 13 47 92 134 143 129 52 74 77 91 94 100 91 93 88
81 72 86 100 109 106 91 63 61 57 67 74 61 6 348 306 312 327 310 281 261 232 228 238 269 290 271 290 333 47 94 138 151 61 79 53 64 91 96 85 92 93 98
99 48 51 90 107 104 107 103 85 67 40 44 2 342 315 305 283 302 302 283 266 238 238 245 268 272 301 301 1 75 126 179 174 53 55 26 81 88 86 88 95 96 102
99 52 53 89 92 93 108 98 86 74 64 359 327 293 310 296 280 301 297 280 272 241 242 251 269 273 290 291 25 90 80 194 213 30 76 67 82 91 85 85 92 94 102
97 55 56 85 95 99 97 98 92 67 64 47 326 300 310 296 312 298 307 280 261 257 241 252 279 289 292 318 60 100 124 210 214 311 287 66 80 94 86 85 86 94 98
98 110 89 98 91 98 83 78 74 81 68 3 349 357 12 315 311 298 308 298 264 267 247 263 274 303 294 308 29 95 152 181 221 251 39 80 78 94 102 93 88 91 93
100 86 84 50 31 359 75 38 115 98 53 311 72 326 101 4 283 287 286 300 274 262 259 262 264 284 256 36 49 44 155 177 267 271 16 76 79 98 113 102 93 91 92
92 92 57 60 52 79 115 48 88 27 79 141 161 173 180 96 278 282 280 292 274 266 260 269 261 258 268 255 300 93 250 254 285 336 32 55 78 110 115 111 104 98 90
83 76 40 32 47 58 26 360 96 80 214 240 173 176 302 359 299 310 278 277 265 263 256 255 250 265 279 290 270 270 263 279 273 307 316 52 103 114 109 108 101 97 93
85 87 75 56 41 37 14 337 340 64 300 238 266 248 307 322 312 151 268 267 265 260 257 257 258 258 256 264 272 330 107 67 206 309 312 96 115 121 112 114 103 82 88
91 90 85 80 66 51 34 8 336 315 310 310 291 273 271 289 304 288 272 257 264 257 257 253 261 260 260 253 298 192 273 257 23 21 338 85 130 136 128 124 131 121 98
94 86 74 70 67 58 32 15 1 346 327 309 296 293 260 260 279 292 275 259 254 256 258 249 257 259 258 258 270 251 313 291 308 254 300 332 98 137 159 142 129 124 83
108 97 87 84 82 65 37 16 355 341 324 319 307 295 253 256 249 272 279 272 249 251 257 256 246 251 268 256 271 253 306 337 336 8 278 345 3 91 157 171 158 131 129
116 105 104 92 85 72 56 39 6 340 324 311 305 295 283 266 259 258 238 275 250 250 253 256 254 236 261 263 262 266 279 285 297 355 340 311 316 331 199 190 158 146 133
115 116 113 97 79 44 24 5 348 335 324 314 305 291 281 275 261 252 270 268 253 251 252 252 253 247 258 266 269 276 280 290 287 272 279 303 330 322 311 270 125 104 147
105 119 125 104 59 28 9 2 350 336 324 310 306 295 283 273 265 258 257 262 261 252 253 250 251 254 258 264 277 276 293 297 299 298 298 300 319 324 328 232 110 355 95
85 102 114 104 62 23 1 357 348 337 323 309 307 288 284 272 264 257 253 258 259 257 249 248 249 257 258 263 274 288 285 292 299 305 310 316 318 322 343 339 333 324 341
77 87 105 74 60 22 11 5 356 343 327 314 296 287 291 268 263 258 256 257 256 254 246 246 249 256 258 258 255 280 289 298 309 311 319 313 314 328 347 335 333 326 319
48 63 66 52 34 24 12 7 4 356 342 317 292 284 300 283 266 257 257 255 252 249 245 243 248 254 256 262 268 274 286 300 308 317 325 326 317 314 335 355 335 325 340
39 41 36 31 33 27 19 20 10 356 308 216 266 285 290 288 272 262 255 252 250 248 245 245 247 251 256 262 270 278 292 295 308 311 322 330 337 331 331 344 351 343 352
42 33 36 34 25 27 29 29 31 138 242 246 249 295 284 291 274 265 258 252 249 247 245 244 246 248 258 259 267 279 292 300 310 320 321 333 330 4 12 20 26 355 349